Location: Atlantic Beach
(40.5890°N, 73.7290°W)
Time: 05:55:11
(UTC+00:00)

Cosmos 2297 Rocket - Pass Details

Date: 29 October 2020
Orbit: 838 x 845 km, 71.0° (Epoch: 27 November)

Event Time Altitude Azimuth Distance (km) Brightness Sun altitude
Rises 22:37:21 0° 338° (NNW) 3,411 5.5 -8.7°
Reaches altitude 10° 22:39:50 10° 342° (NNW) 2,473 4.7 -9.2°
Maximum altitude 22:45:29 67° 65° (ENE) 915 2.2 -10.2°
Drops below altitude 10° 22:51:06 10° 147° (SSE) 2,455 4.4 -11.3°
Sets 22:53:33 0° 150° (SSE) 3,385 5.1 -11.8°
